Total_Precipitation_Accumulation
0.02 0.02 0.01 0.00 0.00 0.00 0.01 0.04 0.07 0.13 0.22 0.38 0.61 0.91 1.05 1.07 1.07 1.10 0.96 0.69 0.43 0.37 0.33 0.22 0.15 0.13 0.21 0.25 0.23 0.27 0.21 0.12 0.05 0.04 0.05 0.02 0.00 0.00 0.00 0.00 0.00 0.00 0.00
0.03 0.02 0.01 0.00 0.00 0.00 0.01 0.04 0.05 0.10 0.18 0.33 0.51 0.76 0.93 0.89 0.85 0.89 0.89 0.78 0.60 0.53 0.52 0.44 0.35 0.29 0.32 0.35 0.35 0.43 0.38 0.25 0.13 0.15 0.21 0.11 0.03 0.00 0.00 0.00 0.00 0.00 0.00
0.03 0.01 0.01 0.00 0.00 0.00 0.01 0.03 0.05 0.09 0.19 0.33 0.43 0.48 0.58 0.58 0.65 0.68 0.72 0.75 0.72 0.66 0.62 0.58 0.52 0.43 0.37 0.40 0.46 0.48 0.46 0.38 0.25 0.18 0.22 0.23 0.18 0.05 0.00 0.00 0.00 0.00 0.00
0.01 0.01 0.00 0.01 0.01 0.01 0.01 0.01 0.02 0.04 0.11 0.20 0.25 0.26 0.34 0.39 0.39 0.43 0.52 0.58 0.65 0.68 0.70 0.66 0.67 0.60 0.47 0.45 0.48 0.46 0.45 0.44 0.33 0.22 0.16 0.14 0.15 0.09 0.04 0.01 0.00 0.00 0.00
0.01 0.00 0.01 0.01 0.01 0.01 0.01 0.01 0.01 0.02 0.03 0.05 0.09 0.12 0.14 0.15 0.18 0.25 0.38 0.44 0.55 0.64 0.67 0.70 0.76 0.70 0.61 0.52 0.55 0.53 0.50 0.41 0.34 0.26 0.24 0.23 0.22 0.12 0.11 0.10 0.03 0.00 0.00
0.01 0.02 0.02 0.03 0.02 0.03 0.02 0.02 0.01 0.01 0.01 0.01 0.02 0.03 0.06 0.07 0.11 0.17 0.29 0.41 0.52 0.67 0.63 0.59 0.64 0.64 0.65 0.61 0.61 0.61 0.63 0.53 0.48 0.35 0.24 0.25 0.26 0.22 0.18 0.17 0.12 0.04 0.00
0.04 0.06 0.06 0.05 0.04 0.02 0.01 0.01 0.00 0.00 0.00 0.00 0.00 0.01 0.02 0.02 0.05 0.10 0.20 0.38 0.46 0.62 0.72 0.63 0.59 0.60 0.59 0.59 0.62 0.64 0.63 0.61 0.63 0.48 0.32 0.29 0.23 0.20 0.21 0.19 0.13 0.10 0.03
0.11 0.12 0.11 0.08 0.05 0.02 0.00 0.00 0.00 0.00 0.00 0.00 0.00 0.01 0.01 0.01 0.03 0.06 0.10 0.28 0.44 0.54 0.67 0.68 0.63 0.64 0.68 0.70 0.68 0.66 0.62 0.56 0.56 0.54 0.46 0.45 0.36 0.27 0.22 0.23 0.25 0.24 0.18
0.26 0.25 0.19 0.11 0.06 0.02 0.01 0.00 0.00 0.00 0.00 0.00 0.00 0.00 0.00 0.01 0.03 0.03 0.03 0.10 0.23 0.30 0.38 0.47 0.51 0.58 0.66 0.68 0.71 0.73 0.71 0.62 0.58 0.59 0.57 0.52 0.45 0.39 0.29 0.24 0.24 0.29 0.30
0.46 0.47 0.41 0.24 0.08 0.02 0.01 0.00 0.00 0.00 0.00 0.00 0.00 0.00 0.00 0.00 0.01 0.02 0.02 0.02 0.07 0.11 0.18 0.27 0.31 0.38 0.50 0.60 0.66 0.69 0.74 0.71 0.65 0.65 0.68 0.67 0.62 0.59 0.49 0.36 0.27 0.23 0.29
0.67 0.66 0.50 0.29 0.10 0.03 0.01 0.01 0.00 0.00 0.00 0.00 0.00 0.00 0.00 0.00 0.01 0.01 0.01 0.01 0.03 0.06 0.10 0.17 0.22 0.23 0.29 0.43 0.59 0.68 0.68 0.67 0.64 0.63 0.68 0.74 0.70 0.73 0.67 0.57 0.45 0.33 0.31
0.43 0.42 0.31 0.16 0.09 0.06 0.03 0.03 0.02 0.01 0.02 0.03 0.02 0.01 0.01 0.01 0.01 0.01 0.02 0.02 0.03 0.04 0.05 0.12 0.19 0.22 0.24 0.28 0.40 0.52 0.56 0.57 0.59 0.59 0.58 0.63 0.63 0.68 0.69 0.67 0.61 0.52 0.39
0.16 0.15 0.12 0.09 0.05 0.04 0.04 0.05 0.05 0.06 0.08 0.10 0.07 0.04 0.02 0.01 0.01 0.01 0.03 0.04 0.04 0.04 0.05 0.09 0.15 0.21 0.22 0.23 0.26 0.33 0.40 0.42 0.43 0.45 0.45 0.46 0.49 0.54 0.62 0.65 0.60 0.55 0.47
0.07 0.07 0.06 0.05 0.03 0.03 0.03 0.04 0.06 0.10 0.16 0.22 0.18 0.09 0.04 0.03 0.02 0.02 0.02 0.04 0.05 0.05 0.07 0.12 0.14 0.13 0.12 0.15 0.20 0.24 0.26 0.28 0.28 0.29 0.28 0.29 0.30 0.34 0.42 0.51 0.55 0.55 0.51
0.05 0.04 0.04 0.03 0.03 0.03 0.04 0.05 0.10 0.17 0.29 0.36 0.26 0.14 0.08 0.06 0.07 0.07 0.05 0.06 0.08 0.08 0.09 0.11 0.13 0.12 0.10 0.12 0.18 0.19 0.17 0.19 0.20 0.18 0.14 0.14 0.19 0.22 0.25 0.29 0.38 0.50 0.53
0.07 0.06 0.05 0.04 0.05 0.04 0.06 0.08 0.14 0.25 0.39 0.43 0.34 0.19 0.13 0.11 0.13 0.14 0.11 0.11 0.12 0.12 0.13 0.13 0.16 0.17 0.13 0.18 0.23 0.21 0.14 0.15 0.14 0.09 0.09 0.11 0.16 0.18 0.15 0.15 0.21 0.32 0.39
0.12 0.11 0.11 0.10 0.10 0.10 0.13 0.20 0.24 0.32 0.39 0.39 0.35 0.28 0.23 0.22 0.21 0.19 0.20 0.21 0.23 0.22 0.20 0.17 0.18 0.21 0.25 0.21 0.17 0.17 0.15 0.14 0.12 0.11 0.12 0.14 0.14 0.18 0.14 0.12 0.13 0.15 0.17
0.15 0.16 0.16 0.16 0.17 0.18 0.19 0.28 0.32 0.32 0.35 0.42 0.42 0.36 0.31 0.28 0.28 0.27 0.28 0.35 0.34 0.30 0.30 0.27 0.23 0.24 0.30 0.21 0.12 0.11 0.11 0.12 0.15 0.14 0.14 0.16 0.14 0.12 0.16 0.20 0.23 0.22 0.19
0.12 0.12 0.12 0.11 0.11 0.10 0.09 0.12 0.16 0.20 0.24 0.27 0.32 0.31 0.26 0.27 0.31 0.30 0.35 0.38 0.37 0.40 0.39 0.37 0.33 0.32 0.30 0.20 0.11 0.10 0.10 0.11 0.13 0.13 0.13 0.14 0.12 0.14 0.19 0.30 0.40 0.38 0.34
0.03 0.03 0.03 0.03 0.03 0.02 0.02 0.03 0.04 0.06 0.08 0.09 0.13 0.18 0.19 0.22 0.27 0.36 0.41 0.38 0.36 0.39 0.39 0.35 0.29 0.29 0.27 0.26 0.12 0.11 0.12 0.10 0.11 0.15 0.20 0.24 0.20 0.21 0.19 0.21 0.32 0.34 0.33
0.00 0.00 0.00 0.01 0.01 0.01 0.01 0.02 0.02 0.02 0.02 0.02 0.04 0.07 0.11 0.16 0.25 0.32 0.30 0.30 0.32 0.34 0.33 0.34 0.32 0.29 0.32 0.37 0.31 0.23 0.20 0.18 0.19 0.24 0.31 0.31 0.28 0.19 0.15 0.16 0.21 0.23 0.28
0.00 0.00 0.00 0.00 0.00 0.00 0.00 0.00 0.00 0.00 0.00 0.00 0.01 0.02 0.04 0.07 0.12 0.19 0.22 0.24 0.28 0.28 0.26 0.27 0.26 0.27 0.35 0.40 0.37 0.32 0.27 0.23 0.22 0.26 0.26 0.24 0.24 0.16 0.12 0.10 0.13 0.12 0.12
0.00 0.00 0.00 0.00 0.00 0.00 0.00 0.00 0.00 0.00 0.00 0.00 0.00 0.00 0.01 0.02 0.05 0.11 0.16 0.20 0.26 0.28 0.25 0.23 0.23 0.25 0.28 0.32 0.31 0.29 0.24 0.18 0.20 0.18 0.17 0.16 0.11 0.08 0.07 0.07 0.08 0.07 0.09
0.00 0.00 0.00 0.00 0.00 0.00 0.00 0.00 0.00 0.00 0.00 0.00 0.00 0.00 0.00 0.01 0.02 0.05 0.12 0.21 0.24 0.22 0.23 0.23 0.24 0.26 0.29 0.29 0.26 0.26 0.26 0.19 0.15 0.11 0.06 0.05 0.03 0.05 0.07 0.07 0.05 0.07 0.12
0.00 0.00 0.00 0.00 0.00 0.00 0.00 0.00 0.00 0.00 0.00 0.00 0.00 0.00 0.00 0.00 0.01 0.02 0.06 0.12 0.15 0.14 0.17 0.22 0.26 0.30 0.32 0.28 0.23 0.21 0.25 0.27 0.28 0.25 0.15 0.10 0.08 0.07 0.09 0.10 0.08 0.08 0.10
0.00 0.00 0.00 0.00 0.00 0.00 0.00 0.00 0.00 0.00 0.00 0.00 0.00 0.00 0.00 0.00 0.00 0.01 0.02 0.05 0.05 0.07 0.07 0.09 0.13 0.12 0.12 0.12 0.11 0.10 0.11 0.15 0.18 0.27 0.33 0.33 0.34 0.32 0.29 0.25 0.18 0.15 0.14